User: anonymous   Login
Location: Unspecified
(0.0000°N, 0.0000°E)
Time: 17:44:17
(UTC+00:00)
Language:

Hubble Space Telescope - Orbit

View from above orbital plane
View from above orbital plane
View from above satellite
View from above satellite

Ground track
Ground track

The orbit data is extracted from the following two-line orbital elements,

1 20580U 90037B   16182.22215279  .00000454  00000-0  17224-4 0  9995
2 20580  28.4688 172.6365 0002692 353.7026 189.1634 15.08406571237087
Epoch (UTC): 30 June 2016 05:19:54
Eccentricity: 0.0002692
inclination: 28.4688°
perigee height: 539 km
apogee height: 543 km
right ascension of ascending node: 172.6365°
argument of perigee: 353.7026°
revolutions per day: 15.08406571
mean anomaly at epoch: 189.1634°
orbit number at epoch: 23708

The dashed part of the orbit path shows where the satellite is in the earth's shadow,  

DLR